Time,TemperatureF,DewpointF,PressureIn,WindDirection,WindDirectionDegrees,WindSpeedMPH,WindSpeedGustMPH,Humidity,HourlyPrecipIn,Conditions,Clouds,dailyrainin,SoftwareType,DateUTC
2013-01-23 00:02:00,30.0,9.0,30.22,SSW,196,2.0,4.0,41,0.00,,,0.00,,2013-01-23 07:02:00,
2013-01-23 00:12:00,30.0,9.0,30.22,SSW,196,2.0,4.0,41,0.00,,,0.00,,2013-01-23 07:12:00,
2013-01-23 00:22:00,30.0,11.0,30.22,South,186,0.0,3.0,44,0.00,,,0.00,,2013-01-23 07:22:00,
2013-01-23 00:33:00,30.0,11.0,30.22,South,186,0.0,3.0,44,0.00,,,0.00,,2013-01-23 07:33:00,
2013-01-23 00:42:00,30.0,11.0,30.22,South,186,0.0,3.0,44,0.00,,,0.00,,2013-01-23 07:42:00,
2013-01-23 00:52:00,28.0,10.0,30.21,South,187,0.0,3.0,47,0.00,,,0.00,,2013-01-23 07:52:00,
2013-01-23 01:02:00,30.0,11.0,30.21,South,187,1.0,3.0,44,0.00,,,0.00,,2013-01-23 08:02:00,
2013-01-23 01:12:00,30.0,11.0,30.21,South,187,1.0,3.0,44,0.00,,,0.00,,2013-01-23 08:12:00,
2013-01-23 01:22:00,30.0,10.0,30.20,South,187,0.0,3.0,43,0.00,,,0.00,,2013-01-23 08:22:00,
2013-01-23 01:32:00,29.0,9.0,30.20,South,175,2.0,5.0,43,0.00,,,0.00,,2013-01-23 08:32:00,
2013-01-23 01:42:00,29.0,9.0,30.20,South,175,2.0,5.0,43,0.00,,,0.00,,2013-01-23 08:42:00,
2013-01-23 01:52:00,29.0,9.0,30.20,South,175,2.0,5.0,43,0.00,,,0.00,,2013-01-23 08:52:00,
2013-01-23 02:02:00,29.0,9.0,30.20,WSW,242,0.0,5.0,42,0.00,,,0.00,,2013-01-23 09:02:00,
2013-01-23 02:12:00,29.0,9.0,30.20,WSW,242,0.0,5.0,42,0.00,,,0.00,,2013-01-23 09:12:00,
2013-01-23 02:22:00,32.0,6.0,30.20,SW,214,1.0,8.0,33,0.00,,,0.00,,2013-01-23 09:22:00,
2013-01-23 02:32:00,37.0,7.0,30.21,NNE,26,2.0,6.0,28,0.00,,,0.00,,2013-01-23 09:32:00,
2013-01-23 02:43:00,37.0,7.0,30.21,NNE,26,2.0,6.0,28,0.00,,,0.00,,2013-01-23 09:43:00,
2013-01-23 02:52:00,35.0,6.0,30.21,West,275,0.0,7.0,29,0.00,,,0.00,,2013-01-23 09:52:00,
2013-01-23 03:02:00,34.0,7.0,30.22,ENE,76,0.0,4.0,32,0.00,,,0.00,,2013-01-23 10:02:00,
2013-01-23 03:12:00,34.0,7.0,30.22,ENE,76,0.0,4.0,32,0.00,,,0.00,,2013-01-23 10:12:00,
2013-01-23 03:22:00,32.0,10.0,30.22,ENE,76,0.0,3.0,39,0.00,,,0.00,,2013-01-23 10:22:00,
2013-01-23 03:32:00,32.0,9.0,30.22,South,178,3.0,5.0,38,0.00,,,0.00,,2013-01-23 10:32:00,
2013-01-23 03:42:00,32.0,9.0,30.22,South,178,3.0,5.0,38,0.00,,,0.00,,2013-01-23 10:42:00,
2013-01-23 03:52:00,32.0,10.0,30.21,South,184,3.0,6.0,39,0.00,,,0.00,,2013-01-23 10:52:00,
2013-01-23 04:02:00,31.0,11.0,30.21,South,188,0.0,2.0,42,0.00,,,0.00,,2013-01-23 11:02:00,
2013-01-23 04:12:00,31.0,11.0,30.21,South,188,0.0,2.0,42,0.00,,,0.00,,2013-01-23 11:12:00,
2013-01-23 04:22:00,31.0,12.0,30.21,South,186,0.0,6.0,45,0.00,,,0.00,,2013-01-23 11:22:00,
2013-01-23 04:32:00,30.0,12.0,30.20,South,186,1.0,3.0,46,0.00,,,0.00,,2013-01-23 11:32:00,
2013-01-23 04:42:00,30.0,12.0,30.20,South,186,1.0,3.0,46,0.00,,,0.00,,2013-01-23 11:42:00,
2013-01-23 04:52:00,30.0,11.0,30.20,South,186,0.0,1.0,45,0.00,,,0.00,,2013-01-23 11:52:00,
2013-01-23 05:03:00,31.0,11.0,30.20,South,186,2.0,5.0,43,0.00,,,0.00,,2013-01-23 12:03:00,
2013-01-23 05:12:00,31.0,11.0,30.20,South,186,2.0,5.0,43,0.00,,,0.00,,2013-01-23 12:12:00,
2013-01-23 05:22:00,31.0,10.0,30.20,South,186,2.0,5.0,41,0.00,,,0.00,,2013-01-23 12:22:00,
2013-01-23 05:33:00,33.0,11.0,30.20,South,186,2.0,5.0,40,0.00,,,0.00,,2013-01-23 12:33:00,
2013-01-23 05:42:00,33.0,11.0,30.20,South,186,2.0,5.0,40,0.00,,,0.00,,2013-01-23 12:42:00,
2013-01-23 05:52:00,31.0,11.0,30.20,SSE,154,0.0,5.0,42,0.00,,,0.00,,2013-01-23 12:52:00,
2013-01-23 06:03:00,32.0,11.0,30.20,SSE,154,2.0,5.0,41,0.00,,,0.00,,2013-01-23 13:03:00,
2013-01-23 06:12:00,32.0,11.0,30.20,SSE,154,2.0,5.0,41,0.00,,,0.00,,2013-01-23 13:12:00,
2013-01-23 06:22:00,32.0,13.0,30.21,SSE,155,0.0,2.0,44,0.00,,,0.00,,2013-01-23 13:22:00,
2013-01-23 06:33:00,32.0,13.0,30.22,SSE,155,1.0,4.0,44,0.00,,,0.00,,2013-01-23 13:33:00,
2013-01-23 06:42:00,32.0,13.0,30.22,SSE,155,1.0,4.0,44,0.00,,,0.00,,2013-01-23 13:42:00,
2013-01-23 06:52:00,31.0,11.0,30.20,SSE,158,2.0,6.0,42,0.00,,,0.00,,2013-01-23 13:52:00,
2013-01-23 07:02:00,32.0,8.0,30.20,SSW,193,2.0,6.0,36,0.00,,,0.00,,2013-01-23 14:02:00,
2013-01-23 07:12:00,32.0,8.0,30.20,SSW,193,2.0,6.0,36,0.00,,,0.00,,2013-01-23 14:12:00,
2013-01-23 07:23:00,32.0,7.0,30.19,SSW,194,2.0,4.0,35,0.00,,,0.00,,2013-01-23 14:23:00,
2013-01-23 07:33:00,30.0,9.0,30.19,South,190,0.0,4.0,41,0.00,,,0.00,,2013-01-23 14:33:00,
2013-01-23 07:42:00,30.0,9.0,30.19,South,190,0.0,4.0,41,0.00,,,0.00,,2013-01-23 14:42:00,
2013-01-23 07:52:00,31.0,7.0,30.19,South,190,2.0,4.0,35,0.00,,,0.00,,2013-01-23 14:52:00,
2013-01-23 08:02:00,30.0,9.0,30.19,South,190,1.0,4.0,40,0.00,,,0.00,,2013-01-23 15:02:00,
2013-01-23 08:12:00,30.0,9.0,30.19,South,190,1.0,4.0,40,0.00,,,0.00,,2013-01-23 15:12:00,
2013-01-23 08:22:00,33.0,10.0,30.19,South,190,0.0,5.0,38,0.00,,,0.00,,2013-01-23 15:22:00,
2013-01-23 08:33:00,32.0,9.0,30.18,SSW,194,1.0,4.0,38,0.00,,,0.00,,2013-01-23 15:33:00,
2013-01-23 08:43:00,32.0,9.0,30.18,SSW,194,1.0,4.0,38,0.00,,,0.00,,2013-01-23 15:43:00,
2013-01-23 08:52:00,33.0,10.0,30.17,SSE,163,0.0,5.0,37,0.00,,,0.00,,2013-01-23 15:52:00,
2013-01-23 09:02:00,33.0,12.0,30.17,SSE,163,0.0,2.0,41,0.00,,,0.00,,2013-01-23 16:02:00,
2013-01-23 09:22:00,34.0,11.0,30.16,SSE,163,0.0,2.0,37,0.00,,,0.00,,2013-01-23 16:22:00,
2013-01-23 09:32:00,35.0,13.0,30.17,NNW,348,0.0,5.0,39,0.00,,,0.00,,2013-01-23 16:32:00,
2013-01-23 09:52:00,36.0,12.0,30.17,SE,136,2.0,4.0,37,0.00,,,0.00,,2013-01-23 16:52:00,
2013-01-23 10:03:00,37.0,15.0,30.18,NNW,338,0.0,6.0,40,0.00,,,0.00,,2013-01-23 17:03:00,
2013-01-23 10:22:00,37.0,13.0,30.18,NNW,338,0.0,3.0,37,0.00,,,0.00,,2013-01-23 17:22:00,
2013-01-23 10:33:00,37.0,13.0,30.18,South,183,0.0,3.0,37,0.00,,,0.00,,2013-01-23 17:33:00,
2013-01-23 10:42:00,37.0,13.0,30.18,South,183,0.0,3.0,37,0.00,,,0.00,,2013-01-23 17:42:00,
2013-01-23 10:52:00,37.0,14.0,30.19,SSE,157,0.0,3.0,39,0.00,,,0.00,,2013-01-23 17:52:00,
2013-01-23 11:03:00,38.0,14.0,30.19,SSE,157,0.0,2.0,37,0.00,,,0.00,,2013-01-23 18:03:00,
2013-01-23 11:12:00,38.0,14.0,30.19,SSE,157,0.0,2.0,37,0.00,,,0.00,,2013-01-23 18:12:00,
2013-01-23 11:22:00,38.0,12.0,30.19,SSE,157,0.0,0.0,34,0.00,,,0.00,,2013-01-23 18:22:00,
2013-01-23 11:33:00,38.0,12.0,30.19,SSE,157,0.0,0.0,34,0.00,,,0.00,,2013-01-23 18:33:00,
2013-01-23 11:43:00,40.0,9.0,30.18,SSE,158,2.0,4.0,27,0.00,,,0.00,,2013-01-23 18:43:00,
2013-01-23 11:52:00,40.0,13.0,30.18,SSE,158,0.0,2.0,33,0.00,,,0.00,,2013-01-23 18:52:00,
2013-01-23 12:02:00,39.0,12.0,30.17,SSE,158,0.0,4.0,33,0.00,,,0.00,,2013-01-23 19:02:00,
2013-01-23 12:12:00,39.0,12.0,30.17,SSE,158,0.0,4.0,33,0.00,,,0.00,,2013-01-23 19:12:00,
2013-01-23 12:22:00,40.0,13.0,30.15,SSE,158,0.0,0.0,32,0.00,,,0.00,,2013-01-23 19:22:00,
2013-01-23 12:33:00,43.0,14.0,30.15,SSE,158,0.0,0.0,30,0.00,,,0.00,,2013-01-23 19:33:00,
2013-01-23 12:43:00,43.0,14.0,30.15,SSE,158,0.0,0.0,30,0.00,,,0.00,,2013-01-23 19:43:00,
2013-01-23 12:52:00,44.0,12.0,30.14,SSE,158,1.0,4.0,27,0.00,,,0.00,,2013-01-23 19:52:00,
2013-01-23 13:02:00,44.0,12.0,30.14,SSE,158,1.0,4.0,27,0.00,,,0.00,,2013-01-23 20:02:00,
2013-01-23 13:12:00,44.0,12.0,30.14,SSE,158,1.0,4.0,27,0.00,,,0.00,,2013-01-23 20:12:00,
2013-01-23 13:22:00,44.0,12.0,30.14,SSE,158,1.0,4.0,27,0.00,,,0.00,,2013-01-23 20:22:00,
2013-01-23 13:53:00,45.0,13.0,30.11,SSE,158,0.0,5.0,27,0.00,,,0.00,,2013-01-23 20:53:00,
2013-01-23 14:02:00,46.0,12.0,30.10,SSE,150,4.0,6.0,25,0.00,,,0.00,,2013-01-23 21:02:00,
2013-01-23 14:12:00,46.0,12.0,30.10,SSE,150,4.0,6.0,25,0.00,,,0.00,,2013-01-23 21:12:00,
2013-01-23 14:22:00,45.0,16.0,30.11,South,170,0.0,4.0,31,0.00,,,0.00,,2013-01-23 21:22:00,
2013-01-23 14:33:00,40.0,19.0,30.11,WNW,293,3.0,7.0,43,0.00,,,0.00,,2013-01-23 21:33:00,
2013-01-23 14:42:00,40.0,19.0,30.11,WNW,293,3.0,7.0,43,0.00,,,0.00,,2013-01-23 21:42:00,
2013-01-23 14:52:00,36.0,20.0,30.11,West,281,1.0,5.0,52,0.00,,,0.00,,2013-01-23 21:52:00,
2013-01-23 15:02:00,37.0,21.0,30.11,West,281,0.0,2.0,51,0.00,,,0.00,,2013-01-23 22:02:00,
2013-01-23 15:12:00,37.0,21.0,30.11,West,281,0.0,2.0,51,0.00,,,0.00,,2013-01-23 22:12:00,
2013-01-23 15:22:00,39.0,20.0,30.12,NNE,31,0.0,6.0,47,0.00,,,0.00,,2013-01-23 22:22:00,
2013-01-23 15:33:00,38.0,19.0,30.13,North,5,0.0,2.0,45,0.00,,,0.00,,2013-01-23 22:33:00,
2013-01-23 15:42:00,38.0,19.0,30.13,North,5,0.0,2.0,45,0.00,,,0.00,,2013-01-23 22:42:00,
2013-01-23 15:52:00,39.0,22.0,30.13,North,9,0.0,3.0,50,0.00,,,0.00,,2013-01-23 22:52:00,
2013-01-23 16:02:00,39.0,22.0,30.13,North,5,0.0,1.0,50,0.00,,,0.00,,2013-01-23 23:02:00,
2013-01-23 16:22:00,40.0,21.0,30.13,South,173,0.0,3.0,47,0.00,,,0.00,,2013-01-23 23:22:00,
2013-01-23 16:33:00,41.0,16.0,30.12,SSE,166,3.0,5.0,36,0.00,,,0.00,,2013-01-23 23:33:00,
2013-01-23 16:42:00,41.0,16.0,30.12,SSE,166,3.0,5.0,36,0.00,,,0.00,,2013-01-23 23:42:00,
2013-01-23 16:52:00,42.0,16.0,30.12,South,173,1.0,6.0,35,0.00,,,0.00,,2013-01-23 23:52:00,
2013-01-23 17:02:00,39.0,18.0,30.13,South,173,0.0,1.0,42,0.00,,,0.00,,2013-01-24 00:02:00,
2013-01-23 17:12:00,39.0,18.0,30.13,South,173,0.0,1.0,42,0.00,,,0.00,,2013-01-24 00:12:00,
2013-01-23 17:22:00,34.0,18.0,30.13,North,11,0.0,7.0,51,0.00,,,0.00,,2013-01-24 00:22:00,
2013-01-23 17:32:00,30.0,18.0,30.13,NW,317,0.0,3.0,60,0.00,,,0.00,,2013-01-24 00:32:00,
2013-01-23 17:42:00,30.0,18.0,30.13,NW,317,0.0,3.0,60,0.00,,,0.00,,2013-01-24 00:42:00,
2013-01-23 17:52:00,32.0,17.0,30.12,South,186,7.0,10.0,53,0.00,,,0.00,,2013-01-24 00:52:00,
2013-01-23 18:02:00,34.0,15.0,30.11,South,182,4.0,6.0,46,0.00,,,0.00,,2013-01-24 01:02:00,
2013-01-23 18:12:00,34.0,15.0,30.11,South,182,4.0,6.0,46,0.00,,,0.00,,2013-01-24 01:12:00,
2013-01-23 18:22:00,41.0,12.0,30.11,SSW,194,4.0,9.0,30,0.00,,,0.00,,2013-01-24 01:22:00,
2013-01-23 18:32:00,43.0,11.0,30.09,SW,215,9.0,13.0,27,0.00,,,0.00,,2013-01-24 01:32:00,
2013-01-23 18:52:00,43.0,12.0,30.10,NNW,328,4.0,14.0,28,0.00,,,0.00,,2013-01-24 01:52:00,
2013-01-23 19:02:00,34.0,16.0,30.11,NNW,344,0.0,3.0,48,0.00,,,0.00,,2013-01-24 02:02:00,
2013-01-23 19:12:00,34.0,16.0,30.11,NNW,344,0.0,3.0,48,0.00,,,0.00,,2013-01-24 02:12:00,
2013-01-23 19:22:00,32.0,16.0,30.12,NNE,17,0.0,5.0,52,0.00,,,0.00,,2013-01-24 02:22:00,
2013-01-23 19:32:00,32.0,16.0,30.12,ESE,111,0.0,6.0,52,0.00,,,0.00,,2013-01-24 02:32:00,
2013-01-23 19:42:00,32.0,16.0,30.12,ESE,111,0.0,6.0,52,0.00,,,0.00,,2013-01-24 02:42:00,
2013-01-23 19:52:00,32.0,16.0,30.12,ESE,111,0.0,6.0,52,0.00,,,0.00,,2013-01-24 02:52:00,
2013-01-23 20:02:00,32.0,16.0,30.12,SSE,165,3.0,5.0,52,0.00,,,0.00,,2013-01-24 03:02:00,
2013-01-23 20:12:00,32.0,16.0,30.12,SSE,165,3.0,5.0,52,0.00,,,0.00,,2013-01-24 03:12:00,
2013-01-23 20:22:00,35.0,17.0,30.11,West,262,0.0,5.0,47,0.00,,,0.00,,2013-01-24 03:22:00,
2013-01-23 20:32:00,35.0,15.0,30.10,SSE,153,2.0,6.0,43,0.00,,,0.00,,2013-01-24 03:32:00,
2013-01-23 20:42:00,35.0,15.0,30.10,SSE,153,2.0,6.0,43,0.00,,,0.00,,2013-01-24 03:42:00,
2013-01-23 20:52:00,37.0,14.0,30.10,East,84,6.0,9.0,38,0.00,,,0.00,,2013-01-24 03:52:00,
2013-01-23 21:02:00,34.0,15.0,30.10,NNW,327,1.0,5.0,46,0.00,,,0.00,,2013-01-24 04:02:00,
2013-01-23 21:12:00,34.0,15.0,30.10,NNW,327,1.0,5.0,46,0.00,,,0.00,,2013-01-24 04:12:00,
2013-01-23 21:22:00,32.0,16.0,30.09,NW,326,1.0,4.0,52,0.00,,,0.00,,2013-01-24 04:22:00,
2013-01-23 21:32:00,32.0,16.0,30.09,East,79,2.0,4.0,52,0.00,,,0.00,,2013-01-24 04:32:00,
2013-01-23 21:42:00,32.0,16.0,30.09,East,79,2.0,4.0,52,0.00,,,0.00,,2013-01-24 04:42:00,
2013-01-23 21:52:00,33.0,15.0,30.09,North,351,1.0,4.0,47,0.00,,,0.00,,2013-01-24 04:52:00,
2013-01-23 22:03:00,32.0,16.0,30.09,SE,138,0.0,2.0,52,0.00,,,0.00,,2013-01-24 05:03:00,
2013-01-23 22:12:00,32.0,16.0,30.09,SE,138,0.0,2.0,52,0.00,,,0.00,,2013-01-24 05:12:00,
2013-01-23 22:22:00,32.0,15.0,30.09,ESE,122,0.0,3.0,50,0.00,,,0.00,,2013-01-24 05:22:00,
2013-01-23 22:32:00,31.0,16.0,30.10,NNE,24,0.0,3.0,53,0.00,,,0.00,,2013-01-24 05:32:00,
2013-01-23 22:42:00,31.0,16.0,30.10,NNE,24,0.0,3.0,53,0.00,,,0.00,,2013-01-24 05:42:00,
2013-01-23 22:52:00,29.0,15.0,30.10,NW,320,2.0,5.0,56,0.00,,,0.00,,2013-01-24 05:52:00,
2013-01-23 23:02:00,27.0,14.0,30.10,South,187,5.0,7.0,58,0.00,,,0.00,,2013-01-24 06:02:00,
2013-01-23 23:12:00,27.0,14.0,30.10,South,187,5.0,7.0,58,0.00,,,0.00,,2013-01-24 06:12:00,
2013-01-23 23:22:00,30.0,15.0,30.10,WSW,242,0.0,5.0,53,0.00,,,0.00,,2013-01-24 06:22:00,
2013-01-23 23:32:00,30.0,14.0,30.11,NNW,331,1.0,5.0,50,0.00,,,0.00,,2013-01-24 06:32:00,
2013-01-23 23:42:00,30.0,14.0,30.11,NNW,331,1.0,5.0,50,0.00,,,0.00,,2013-01-24 06:42:00,
2013-01-23 23:52:00,40.0,13.0,30.10,SSW,207,1.0,10.0,33,0.00,,,0.00,,2013-01-24 06:52:00,